Weather History for Ypsilanti, MI

Change the Weather History Date:

Monday, May 13, 2013

  Actual Average Record
Temperature  
Mean Temperature 44 °F -  
Max Temperature 57 °F 70 °F 90 °F (2014)
Min Temperature 30 °F 47 °F 30 °F (2001)
Degree Days  
Heating Degree Days 22    
Moisture  
Dew Point 24 °F    
Average Humidity 49    
Maximum Humidity 76    
Minimum Humidity 24    
Precipitation  
Precipitation 0.00 in - - ()
Sea Level Pressure  
Sea Level Pressure 30.14 in    
Wind  
Wind Speed 6 mph (WNW)    
Max Wind Speed 14 mph    
Max Gust Speed 20 mph    
Visibility 10 miles    
Events      
Averages and records for this station are not official NWS values.
T = Trace of Precipitation, MM = Missing Value Source: NWS Daily Summary

Daily Weather History Graph

Daily Weather History Graph

Search for Another Location

Airport:

Trip Planner

Search our weather history database for the weather conditions in past years. The results will help you decide how hot, cold, wet, or windy it might be!

Date:

Astronomy

May. 13, 2013 Rise Set
Actual Time 6:14 AM EDT 8:46 PM EDT
Civil Twilight 5:42 AM EDT 9:18 PM EDT
Nautical Twilight 5:03 AM EDT 9:58 PM EDT
Astronomical Twilight 4:18 AM EDT 10:43 PM EDT
Moon 8:59 AM EDT (5/13) 11:55 PM EDT (5/13)
Length of Visible Light 15h 35m
Length of Day
14h 31m
Waxing Crescent, 12% of the Moon is Illuminated
May 13
Waxing Crescent
May 18
First Quarter
May 25
Full
May 31
Last Quarter
Jun 8
New

Hourly Weather History & Observations

Time (EDT) Temp. Windchill Dew Point Humidity Pressure Visibility Wind Dir Wind Speed Gust Speed Precip Events Conditions
12:53 AM 33.1 °F 28.7 °F 25.0 °F 72% 30.11 in 10.0 mi NNW 4.6 mph - N/A   Clear
1:53 AM 33.1 °F 30.0 °F 25.0 °F 72% 30.11 in 10.0 mi NW 3.5 mph - N/A   Clear
2:53 AM 30.9 °F 26.2 °F 24.1 °F 76% 30.11 in 10.0 mi WNW 4.6 mph - N/A   Clear
3:53 AM 33.1 °F 27.7 °F 25.0 °F 72% 30.11 in 10.0 mi WNW 5.8 mph - N/A   Clear
4:53 AM 33.1 °F 30.0 °F 26.1 °F 75% 30.11 in 10.0 mi West 3.5 mph - N/A   Clear
5:53 AM 30.0 °F 25.2 °F 23.0 °F 75% 30.11 in 10.0 mi WNW 4.6 mph - N/A   Clear
6:53 AM 30.9 °F 26.2 °F 24.1 °F 76% 30.12 in 10.0 mi WNW 4.6 mph - N/A   Clear
7:53 AM 37.0 °F 29.8 °F 27.0 °F 67% 30.14 in 10.0 mi NW 10.4 mph - N/A   Clear
8:53 AM 42.1 °F 36.1 °F 24.1 °F 49% 30.16 in 10.0 mi NW 10.4 mph - N/A   Clear
9:53 AM 46.0 °F 41.0 °F 21.9 °F 39% 30.17 in 10.0 mi NNW 10.4 mph 19.6 mph N/A   Clear
10:53 AM 48.0 °F - 21.9 °F 36% 30.18 in 10.0 mi NNW 8.1 mph 16.1 mph N/A   Partly Cloudy
11:53 AM 50.0 °F - 21.9 °F 33% 30.18 in 10.0 mi NW 13.8 mph - N/A   Clear
12:53 PM 53.1 °F - 23.0 °F 31% 30.18 in 10.0 mi WNW 13.8 mph 18.4 mph N/A   Partly Cloudy
1:53 PM 53.1 °F - 23.0 °F 31% 30.18 in 10.0 mi Variable 3.5 mph 16.1 mph N/A   Mostly Cloudy
2:53 PM 53.1 °F - 21.9 °F 30% 30.17 in 10.0 mi NNW 8.1 mph - N/A   Overcast
4:53 PM 57.0 °F - 19.9 °F 24% 30.13 in 10.0 mi North 5.8 mph - N/A   Partly Cloudy
5:53 PM 55.9 °F - 19.9 °F 25% 30.12 in 10.0 mi West 5.8 mph - N/A   Clear
6:53 PM 57.0 °F - 19.9 °F 24% 30.12 in 10.0 mi West 6.9 mph - N/A   Clear
8:53 PM 53.1 °F - 19.0 °F 26% 30.12 in 10.0 mi Calm Calm - N/A   Clear
9:53 PM 48.9 °F - 24.1 °F 38% 30.12 in 10.0 mi Calm Calm - N/A   Clear
10:53 PM 46.0 °F 43.1 °F 28.9 °F 51% 30.12 in 10.0 mi South 5.8 mph - N/A   Clear
11:53 PM 46.9 °F - 30.9 °F 54% 30.12 in 10.0 mi South 6.9 mph - N/A   Clear